Jefferson, NC

11:51 AM EDT on March 29, 2017 (GMT -0400)
Ashe County

Weather History for KGEV - January, 2003

Change the Weather History Date:

Monday, January 6, 2003

  Actual Average Record
Temperature  
Mean Temperature 32 °F -  
Max Temperature 39 °F 43 °F 62 °F (2005)
Min Temperature 24 °F 22 °F -4 °F (2014)
Degree Days  
Heating Degree Days 32    
Moisture  
Dew Point 30 °F    
Average Humidity 85    
Maximum Humidity 93    
Minimum Humidity 74    
Precipitation  
Precipitation 0.00 in - - ()
Sea Level Pressure  
Sea Level Pressure 29.93 in    
Wind  
Wind Speed 16 mph (NW)    
Max Wind Speed 32 mph    
Max Gust Speed 46 mph    
Visibility 8 miles    
Events Snow    
Averages and records for this station are not official NWS values.
T = Trace of Precipitation, MM = Missing Value Source: NWS Daily Summary

Daily Weather History Graph

Daily Weather History Graph

Search for Another Location

Airport or City:

Trip Planner

Search our weather history database for the weather conditions in past years. The results will help you decide how hot, cold, wet, or windy it might be!

Date:

Astronomy

Jan. 06, 2003 Rise Set
Actual Time 7:37 AM EST 5:25 PM EST
Civil Twilight 7:09 AM EST 5:53 PM EST
Nautical Twilight 6:37 AM EST 6:25 PM EST
Astronomical Twilight 6:06 AM EST 6:57 PM EST
Moon 10:35 AM EST (1/6) 9:27 PM EST (1/6)
Length of Visible Light 10h 44m
Length of Day
9h 47m
Waxing Crescent, 16% of the Moon is Illuminated
Jan 6
Waxing Crescent
Jan 10
First Quarter
Jan 18
Full
Jan 25
Last Quarter
Feb 1
New

Hourly Weather History & Observations

Time (EST) Temp. Windchill Dew Point Humidity Pressure Visibility Wind Dir Wind Speed Gust Speed Precip Events Conditions
12:19 AM 39.2 °F 30.2 °F 33.8 °F 81% 29.93 in 10.0 mi WNW 17.3 mph 28.8 mph N/A   Mostly Cloudy
12:39 AM 37.4 °F 26.6 °F 33.8 °F 87% 29.93 in 10.0 mi WNW 21.9 mph 29.9 mph N/A   Scattered Clouds
12:59 AM 37.4 °F 28.2 °F 33.8 °F 87% 29.93 in 10.0 mi WNW 16.1 mph 24.2 mph N/A   Scattered Clouds
1:19 AM 37.4 °F 28.2 °F 33.8 °F 87% 29.94 in 10.0 mi WNW 16.1 mph 27.6 mph N/A   Overcast
1:39 AM 37.4 °F 27.8 °F 33.8 °F 87% 29.93 in 10.0 mi WNW 17.3 mph 24.2 mph N/A   Overcast
1:59 AM 37.4 °F 27.5 °F 33.8 °F 87% 29.93 in 10.0 mi WNW 18.4 mph 27.6 mph N/A   Mostly Cloudy
2:21 AM 37.4 °F 27.5 °F 33.8 °F 87% 29.93 in 10.0 mi WNW 18.4 mph 27.6 mph N/A   Scattered Clouds
2:39 AM 37.4 °F 26.4 °F 32.0 °F 81% 29.92 in 10.0 mi WNW 23.0 mph 33.4 mph N/A   Scattered Clouds
2:59 AM 37.4 °F 27.2 °F 32.0 °F 81% 29.92 in 10.0 mi WNW 19.6 mph 28.8 mph N/A   Clear
3:19 AM 37.4 °F 26.9 °F 32.0 °F 81% 29.92 in 10.0 mi NW 20.7 mph 31.1 mph N/A   Clear
3:39 AM 37.4 °F 29.3 °F 32.0 °F 81% 29.93 in 10.0 mi NW 12.7 mph 28.8 mph N/A   Clear
3:59 AM 37.4 °F 28.9 °F 32.0 °F 81% 29.93 in 10.0 mi NW 13.8 mph 21.9 mph N/A   Mostly Cloudy
4:19 AM 37.4 °F 30.3 °F 32.0 °F 81% 29.93 in 10.0 mi NW 10.4 mph 17.3 mph N/A   Mostly Cloudy
4:39 AM 37.4 °F 32.1 °F 32.0 °F 81% 29.93 in 10.0 mi WNW 6.9 mph - N/A   Overcast
4:59 AM 37.4 °F 29.8 °F 33.8 °F 87% 29.93 in 10.0 mi West 11.5 mph - N/A   Overcast
5:19 AM 37.4 °F 32.8 °F 33.8 °F 87% 29.93 in 10.0 mi WNW 5.8 mph 19.6 mph N/A   Overcast
5:39 AM 37.4 °F 30.3 °F 33.8 °F 87% 29.93 in 10.0 mi WNW 10.4 mph 17.3 mph N/A   Overcast
6:01 AM 37.4 °F 29.3 °F 33.8 °F 87% 29.92 in 10.0 mi WNW 12.7 mph 19.6 mph N/A   Overcast
6:21 AM 37.4 °F 28.2 °F 33.8 °F 87% 29.91 in 10.0 mi WNW 16.1 mph 24.2 mph N/A   Overcast
6:39 AM 37.4 °F 31.4 °F 32.0 °F 81% 29.92 in 10.0 mi WNW 8.1 mph 21.9 mph N/A   Overcast
6:59 AM 37.4 °F 29.8 °F 32.0 °F 81% 29.92 in 10.0 mi WNW 11.5 mph 26.5 mph N/A   Overcast
7:19 AM 35.6 °F 25.5 °F 30.2 °F 81% 29.91 in 10.0 mi WNW 17.3 mph 29.9 mph N/A   Overcast
7:39 AM 35.6 °F 25.2 °F 30.2 °F 81% 29.90 in 10.0 mi NNW 18.4 mph 29.9 mph N/A   Overcast
8:03 AM 35.6 °F 27.5 °F 30.2 °F 81% 29.92 in 10.0 mi WNW 11.5 mph 32.2 mph N/A   Overcast
8:19 AM 35.6 °F 27.5 °F 30.2 °F 81% 29.93 in 10.0 mi WNW 11.5 mph 23.0 mph N/A   Overcast
8:39 AM 35.6 °F 26.6 °F 30.2 °F 81% 29.94 in 10.0 mi WNW 13.8 mph 27.6 mph N/A   Overcast
8:59 AM 35.6 °F 27.1 °F 32.0 °F 87% 29.94 in 10.0 mi NW 12.7 mph 23.0 mph N/A   Overcast
9:19 AM 33.8 °F 27.0 °F 30.2 °F 87% 29.96 in 10.0 mi WNW 8.1 mph 20.7 mph N/A   Overcast
9:39 AM 33.8 °F 25.8 °F 30.2 °F 87% 29.96 in 7.0 mi NW 10.4 mph 16.1 mph N/A   Overcast
10:01 AM 33.8 °F 26.4 °F 30.2 °F 87% 29.95 in 10.0 mi WNW 9.2 mph 17.3 mph N/A   Overcast
10:19 AM 33.8 °F 26.4 °F 30.2 °F 87% 29.96 in 10.0 mi WNW 9.2 mph 18.4 mph N/A   Overcast
10:39 AM 33.8 °F 27.0 °F 30.2 °F 87% 29.96 in 7.0 mi WNW 8.1 mph - N/A   Overcast
10:59 AM 33.8 °F 22.5 °F 30.2 °F 87% 29.94 in 10.0 mi WNW 19.6 mph 27.6 mph N/A   Overcast
11:19 AM 32.0 °F 20.5 °F 30.2 °F 93% 29.94 in 7.0 mi WNW 18.4 mph 27.6 mph N/A   Overcast
11:39 AM 33.8 °F 25.3 °F 28.4 °F 81% 29.94 in 10.0 mi WNW 11.5 mph 23.0 mph N/A   Overcast
12:02 PM 32.0 °F 22.1 °F 28.4 °F 87% 29.93 in 10.0 mi West 13.8 mph 28.8 mph N/A   Overcast
12:19 PM 32.0 °F 23.6 °F 28.4 °F 87% 29.93 in 5.0 mi WNW 10.4 mph 19.6 mph N/A Snow Light Snow
12:39 PM 32.0 °F 23.6 °F 30.2 °F 93% 29.92 in 4.0 mi NW 10.4 mph 16.1 mph N/A Snow Light Snow
12:59 PM 32.0 °F 22.5 °F 30.2 °F 93% 29.92 in 5.0 mi WNW 12.7 mph 25.3 mph N/A Snow Light Snow
1:19 PM 32.0 °F 22.1 °F 28.4 °F 87% 29.91 in 7.0 mi NW 13.8 mph 27.6 mph N/A Snow Light Snow
1:39 PM 32.0 °F 21.6 °F 28.4 °F 87% 29.90 in 4.0 mi NW 15.0 mph 28.8 mph N/A Snow Light Snow
1:59 PM 32.0 °F 20.8 °F 28.4 °F 87% 29.89 in 4.0 mi NNW 17.3 mph 29.9 mph N/A Snow Light Snow
2:21 PM 32.0 °F 19.2 °F 26.6 °F 80% 29.88 in 10.0 mi WNW 23.0 mph 38.0 mph N/A Snow Light Snow
2:39 PM 32.0 °F 18.6 °F 26.6 °F 80% 29.87 in 3.0 mi NW 25.3 mph 40.3 mph N/A Snow Light Snow
2:59 PM 32.0 °F 17.9 °F 28.4 °F 87% 29.86 in 1.8 mi WNW 28.8 mph 43.7 mph N/A Snow Light Snow
3:20 PM 32.0 °F 20.5 °F 30.2 °F 93% 29.88 in 2.0 mi NW 18.4 mph 42.6 mph N/A Snow Light Snow
3:39 PM 32.0 °F 17.2 °F 28.4 °F 87% 29.87 in 5.0 mi NW 32.2 mph 46.0 mph N/A Snow Light Snow
4:01 PM 32.0 °F 17.9 °F 28.4 °F 87% 29.89 in 3.0 mi NW 28.8 mph 42.6 mph N/A Snow Light Snow
4:19 PM 30.2 °F 16.5 °F 26.6 °F 86% 29.91 in 1.8 mi NW 24.2 mph 33.4 mph N/A Snow Light Snow
4:39 PM 30.2 °F 16.5 °F 26.6 °F 86% 29.93 in 2.5 mi NW 24.2 mph 35.7 mph N/A Snow Light Snow
4:59 PM 30.2 °F 15.7 °F 24.8 °F 80% 29.94 in 7.0 mi WNW 27.6 mph 41.4 mph N/A Snow Snow
5:22 PM 28.4 °F 15.8 °F 24.8 °F 86% 29.96 in 1.2 mi NW 18.4 mph 31.1 mph N/A Snow Light Snow
5:39 PM 26.6 °F 13.1 °F 24.8 °F 93% 29.97 in 2.0 mi NNW 19.6 mph 26.5 mph N/A Snow Light Snow
5:59 PM 26.6 °F 16.2 °F 23.0 °F 86% 29.99 in 2.5 mi NW 11.5 mph 28.8 mph N/A Snow Light Snow
6:19 PM 26.6 °F 10.6 °F 19.4 °F 74% 29.98 in 7.0 mi NW 28.8 mph 44.9 mph N/A Snow Light Snow
6:39 PM 26.6 °F 13.8 °F 19.4 °F 74% 29.99 in 3.0 mi NW 17.3 mph 34.5 mph N/A Snow Light Snow
6:59 PM 26.6 °F 11.1 °F 19.4 °F 74% 29.99 in 10.0 mi NW 26.5 mph 36.8 mph N/A   Mostly Cloudy
7:19 PM 24.8 °F 9.6 °F 17.6 °F 74% 30.00 in 5.0 mi NNW 23.0 mph 43.7 mph N/A Snow Light Snow
7:43 PM 24.8 °F 11.1 °F 17.6 °F 74% 30.01 in 10.0 mi NW 18.4 mph 36.8 mph N/A   Mostly Cloudy
7:59 PM 24.8 °F 9.6 °F 17.6 °F 74% 30.01 in 7.0 mi WNW 23.0 mph 28.8 mph N/A Snow Light Snow
8:21 PM 24.8 °F 10.3 °F 19.4 °F 80% 30.02 in 5.0 mi NW 20.7 mph 38.0 mph N/A Snow Light Snow
8:39 PM 24.8 °F 14.0 °F 19.4 °F 80% 30.02 in 3.0 mi NW 11.5 mph 23.0 mph N/A Snow Light Snow
9:02 PM 24.8 °F 14.0 °F 21.2 °F 86% 30.03 in 1.5 mi NW 11.5 mph 26.5 mph N/A Snow Light Snow
9:19 PM 24.8 °F 10.7 °F 19.4 °F 80% 30.03 in 3.0 mi NW 19.6 mph 40.3 mph N/A Snow Light Snow
9:39 PM 23.0 °F 6.3 °F 19.4 °F 86% 30.02 in 2.0 mi NW 26.5 mph 41.4 mph N/A Snow Light Snow
9:59 PM 21.2 °F 6.0 °F 17.6 °F 86% 30.05 in 3.0 mi NW 19.6 mph 46.0 mph N/A Snow Light Snow
10:19 PM 21.2 °F 4.2 °F 15.8 °F 80% 30.05 in 7.0 mi NW 25.3 mph 40.3 mph N/A   Mostly Cloudy
10:44 PM 21.2 °F 4.9 °F 15.8 °F 80% 30.06 in 10.0 mi NNW 23.0 mph 31.1 mph N/A   Overcast
11:00 PM 21.2 °F 6.4 °F 15.8 °F 80% 30.07 in 7.0 mi NW 18.4 mph 33.4 mph N/A Snow Light Snow
11:21 PM 21.2 °F 5.2 °F 15.8 °F 80% 30.07 in 7.0 mi NNW 21.9 mph 36.8 mph N/A Snow Light Snow
11:39 PM 21.2 °F 6.8 °F 15.8 °F 80% 30.07 in 10.0 mi NW 17.3 mph 29.9 mph N/A   Overcast
11:59 PM 21.2 °F 6.0 °F 15.8 °F 80% 30.06 in 5.0 mi NW 19.6 mph 40.3 mph N/A Snow Light Snow